Webcam mot vest more information Webcam facing west


BeaufortBeaufort


Du finner stasjonens værinfo også på:

European Weather Network

WeatherCloud

Weather Underground

HAMweather, WeatherForYou, PWS Weather


Programvare vi bruker:

Weather Display

Leuven-Template 2.8

One.com

Stasjonens lagrede data tekst

Daglig sammendrag for mai 21, 2018 enheter:  Metric    Engelsk   Begge
« Forrige Dag
Neste Dag »
Daglig Weekly Månedlig Årlig Custom
  Gjeldene: h√ły: Lav: Snitt:
Temperatur: -13.8 °C -17.8 °C -13.8 °C -13.6 °C
Duggpunkt: -15.8 °C -17.8 °C -15.8 °C -15.6 °C
Luftfuktighet: 78 % Humidity % 76 % 77 %
Vind: 23.3 km/h 0 km/h 18.2 km/h 24.8 km/h
Vindkast: 31.1 km/h 0 km/h - -
Vind vesterålen:SW - - SW
Trykk: 34144.4 hPa 0 hPa 34107.2 hPa -
Nedb√łr: 71.12 mm      
Historical Graphs
 
 
Tabelldata for mai 21, 2018
Tid Temperatur Duggpunkt Trykk Vind vesterålen Vind Vindkast Luftfuktighet Regn Intensitet (Time)
-17.8 °C -17.8 °C 0 hPa Calm     Humidity % 0 mm
00:00 -13.2 °C -15.4 °C 34130.9 hPa SW 31.1 km/h 41.4 km/h 76 % 20.32 mm
00:05 -13.2 °C -15.3 °C 34130.9 hPa SW 31.1 km/h 41.4 km/h 77 % 0 mm
00:10 -13.2 °C -15.3 °C 34130.9 hPa SW 25.9 km/h 31.1 km/h 77 % 0 mm
00:15 -13.2 °C -15.3 °C 34107.2 hPa SW 23.3 km/h 23.3 km/h 77 % 0 mm
00:20 -13.2 °C -15.3 °C 34107.2 hPa SSW 23.3 km/h 23.3 km/h 77 % 0 mm
00:25 -13.2 °C -15.3 °C 34107.2 hPa SSW 23.3 km/h 33.6 km/h 77 % 20.32 mm
00:30 -13.3 °C -15.4 °C 34107.2 hPa SW 25.9 km/h 38.8 km/h 77 % 0 mm
00:35 -13.3 °C -15.4 °C 34130.9 hPa WSW 31.1 km/h 49.2 km/h 77 % 0 mm
00:40 -13.3 °C -15.4 °C 34130.9 hPa WSW 31.1 km/h 36.2 km/h 77 % 0 mm
00:45 -13.3 °C -15.4 °C 34130.9 hPa WSW 31.1 km/h 38.8 km/h 77 % 0 mm
00:50 -13.4 °C -15.5 °C 34130.9 hPa WSW 25.9 km/h 38.8 km/h 77 % 0 mm
00:55 -13.4 °C -15.5 °C 34130.9 hPa WSW 25.9 km/h 36.2 km/h 77 % 0 mm
01:00 -13.4 °C -15.5 °C 34130.9 hPa WSW 25.9 km/h 36.2 km/h 77 % 0 mm
01:05 -13.4 °C -15.5 °C 34130.9 hPa WSW 23.3 km/h 31.1 km/h 77 % 0 mm
01:10 -13.4 °C -15.5 °C 34130.9 hPa WSW 23.3 km/h 33.6 km/h 77 % 0 mm
01:15 -13.4 °C -15.6 °C 34120.7 hPa West 25.9 km/h 33.6 km/h 77 % 0 mm
01:20 -13.4 °C -15.6 °C 34120.7 hPa WSW 25.9 km/h 36.2 km/h 77 % 20.32 mm
01:25 -13.4 °C -15.6 °C 34120.7 hPa SW 23.3 km/h 31.1 km/h 77 % 0 mm
01:30 -13.5 °C -15.6 °C 34120.7 hPa WSW 23.3 km/h 31.1 km/h 77 % 0 mm
01:35 -13.5 °C -15.6 °C 34130.9 hPa SW 23.3 km/h 38.8 km/h 77 % 0 mm
01:40 -13.6 °C -15.7 °C 34130.9 hPa SW 23.3 km/h 36.2 km/h 77 % 20.32 mm
01:45 -13.6 °C -15.7 °C 34130.9 hPa SW 20.8 km/h 25.9 km/h 77 % 0 mm
01:50 -13.6 °C -15.7 °C 34130.9 hPa SW 18.2 km/h 23.3 km/h 77 % 0 mm
01:55 -13.6 °C -15.7 °C 34130.9 hPa WSW 18.2 km/h 23.3 km/h 77 % 0 mm
02:00 -13.6 °C -15.7 °C 34130.9 hPa WSW 20.8 km/h 31.1 km/h 77 % 0 mm
02:05 -13.6 °C -15.7 °C 34130.9 hPa SW 20.8 km/h 23.3 km/h 77 % 0 mm
02:10 -13.6 °C -15.7 °C 34130.9 hPa WSW 20.8 km/h 36.2 km/h 77 % 0 mm
02:15 -13.6 °C -15.7 °C 34120.7 hPa WSW 23.3 km/h 36.2 km/h 77 % 0 mm
02:20 -13.6 °C -15.7 °C 34120.7 hPa SW 23.3 km/h 25.9 km/h 77 % 0 mm
02:25 -13.6 °C -15.7 °C 34120.7 hPa WSW 20.8 km/h 25.9 km/h 77 % 0 mm
02:30 -13.6 °C -15.7 °C 34120.7 hPa WSW 20.8 km/h 31.1 km/h 77 % 0 mm
02:35 -13.6 °C -15.7 °C 34120.7 hPa SW 20.8 km/h 31.1 km/h 77 % 0 mm
02:40 -13.6 °C -15.7 °C 34120.7 hPa WSW 20.8 km/h 44.1 km/h 77 % 0 mm
02:45 -13.6 °C -15.7 °C 34120.7 hPa SW 23.3 km/h 44.1 km/h 77 % 0 mm
02:50 -13.6 °C -15.7 °C 34120.7 hPa SW 23.3 km/h 44.1 km/h 77 % 0 mm
02:55 -13.6 °C -15.7 °C 34120.7 hPa SW 23.3 km/h 33.6 km/h 77 % 0 mm
03:00 -13.6 °C -15.7 °C 34120.7 hPa SW 23.3 km/h 33.6 km/h 77 % 0 mm
03:05 -13.6 °C -15.7 °C 34120.7 hPa SW 25.9 km/h 41.4 km/h 77 % 0 mm
03:10 -13.6 °C -15.7 °C 34120.7 hPa SW 25.9 km/h 41.4 km/h 77 % 0 mm
03:15 -13.6 °C -15.7 °C 34120.7 hPa SW 25.9 km/h 33.6 km/h 77 % 0 mm
03:20 -13.6 °C -15.7 °C 34120.7 hPa SW 25.9 km/h 28.5 km/h 77 % 0 mm
03:25 -13.6 °C -15.7 °C 34120.7 hPa SW 31.1 km/h 49.2 km/h 77 % 0 mm
03:30 -13.6 °C -15.7 °C 34120.7 hPa SW 33.6 km/h 46.7 km/h 77 % 0 mm
03:35 -13.6 °C -15.6 °C 34107.2 hPa SW 31.1 km/h 44.1 km/h 78 % 0 mm
03:40 -13.6 °C -15.6 °C 34107.2 hPa SW 31.1 km/h 44.1 km/h 78 % 0 mm
03:45 -13.6 °C -15.6 °C 34107.2 hPa SSW 33.6 km/h 46.7 km/h 78 % 0 mm
03:50 -13.6 °C -15.6 °C 34107.2 hPa SW 33.6 km/h 46.7 km/h 78 % 0 mm
03:55 -13.6 °C -15.6 °C 34107.2 hPa SW 31.1 km/h 46.7 km/h 78 % 0 mm
04:00 -13.6 °C -15.6 °C 34107.2 hPa SW 31.1 km/h 31.1 km/h 78 % 0 mm
04:05 -13.6 °C -15.6 °C 34107.2 hPa SW 25.9 km/h 25.9 km/h 78 % 0 mm
04:10 -13.6 °C -15.6 °C 34107.2 hPa SW 23.3 km/h 36.2 km/h 78 % 0 mm
04:15 -13.6 °C -15.6 °C 34107.2 hPa SW 23.3 km/h 38.8 km/h 78 % 0 mm
04:20 -13.6 °C -15.6 °C 34107.2 hPa SW 25.9 km/h 38.8 km/h 78 % 0 mm
04:25 -13.6 °C -15.6 °C 34107.2 hPa SSW 25.9 km/h 38.8 km/h 78 % 0 mm
04:30 -13.6 °C -15.6 °C 34107.2 hPa SSW 25.9 km/h 36.2 km/h 78 % 0 mm
04:35 -13.6 °C -15.6 °C 34120.7 hPa SSW 23.3 km/h 36.2 km/h 78 % 0 mm
04:40 -13.6 °C -15.6 °C 34120.7 hPa SSW 23.3 km/h 31.1 km/h 78 % 0 mm
04:45 -13.6 °C -15.6 °C 34120.7 hPa SSW 20.8 km/h 25.9 km/h 78 % 0 mm
04:50 -13.6 °C -15.6 °C 34120.7 hPa SSW 20.8 km/h 25.9 km/h 78 % 0 mm
04:55 -13.6 °C -15.6 °C 34120.7 hPa SW 20.8 km/h 38.8 km/h 78 % 0 mm
05:00 -13.6 °C -15.6 °C 34120.7 hPa SSW 23.3 km/h 31.1 km/h 78 % 0 mm
05:05 -13.6 °C -15.6 °C 34120.7 hPa SSW 25.9 km/h 41.4 km/h 78 % 0 mm
05:10 -13.6 °C -15.6 °C 34120.7 hPa SW 31.1 km/h 41.4 km/h 78 % 0 mm
05:15 -13.6 °C -15.6 °C 34120.7 hPa SW 31.1 km/h 38.8 km/h 78 % 0 mm
05:20 -13.6 °C -15.6 °C 34120.7 hPa SW 25.9 km/h 31.1 km/h 78 % 0 mm
05:25 -13.6 °C -15.6 °C 34120.7 hPa SW 25.9 km/h 33.6 km/h 78 % 0 mm
05:30 -13.6 °C -15.6 °C 34120.7 hPa SW 31.1 km/h 44.1 km/h 78 % 0 mm
05:35 -13.6 °C -15.6 °C 34120.7 hPa SW 33.6 km/h 38.8 km/h 78 % 0 mm
05:40 -13.6 °C -15.6 °C 34120.7 hPa SW 31.1 km/h 41.4 km/h 78 % 0 mm
05:45 -13.6 °C -15.6 °C 34120.7 hPa SW 25.9 km/h 31.1 km/h 78 % 0 mm
05:50 -13.6 °C -15.6 °C 34120.7 hPa WSW 23.3 km/h 36.2 km/h 78 % 0 mm
05:55 -13.6 °C -15.6 °C 34130.9 hPa WSW 25.9 km/h 36.2 km/h 78 % 0 mm
06:00 -13.6 °C -15.6 °C 34130.9 hPa WSW 23.3 km/h 33.6 km/h 78 % 0 mm
06:05 -13.7 °C -15.7 °C 34130.9 hPa SW 23.3 km/h 38.8 km/h 78 % 0 mm
06:10 -13.6 °C -15.6 °C 34130.9 hPa SW 23.3 km/h 28.5 km/h 78 % 20.32 mm
06:15 -13.6 °C -15.6 °C 34130.9 hPa SW 23.3 km/h 25.9 km/h 78 % 0 mm
06:20 -13.6 °C -15.6 °C 34130.9 hPa WSW 23.3 km/h 23.3 km/h 78 % 0 mm
06:25 -13.7 °C -15.7 °C 34130.9 hPa WSW 23.3 km/h 33.6 km/h 78 % 0 mm
06:30 -13.7 °C -15.7 °C 34130.9 hPa WSW 23.3 km/h 31.1 km/h 78 % 0 mm
06:35 -13.7 °C -15.7 °C 34130.9 hPa SW 23.3 km/h 25.9 km/h 78 % 0 mm
06:40 -13.7 °C -15.7 °C 34130.9 hPa SW 20.8 km/h 33.6 km/h 78 % 0 mm
06:45 -13.7 °C -15.7 °C 34130.9 hPa SW 23.3 km/h 31.1 km/h 78 % 0 mm
06:50 -13.8 °C -15.8 °C 34130.9 hPa SSW 23.3 km/h 31.1 km/h 78 % 0 mm
06:55 -13.8 °C -15.8 °C 34130.9 hPa SW 23.3 km/h 33.6 km/h 78 % 0 mm
07:00 -13.8 °C -15.8 °C 34130.9 hPa SW 23.3 km/h 41.4 km/h 78 % 0 mm
07:05 -13.8 °C -15.8 °C 34130.9 hPa SSW 23.3 km/h 36.2 km/h 78 % 0 mm
07:10 -13.8 °C -15.8 °C 34130.9 hPa SSW 23.3 km/h 36.2 km/h 78 % 0 mm
07:15 -13.8 °C -15.8 °C 34144.4 hPa SW 20.8 km/h 36.2 km/h 78 % 0 mm
07:20 -13.8 °C -15.8 °C 34144.4 hPa SW 23.3 km/h 38.8 km/h 78 % 0 mm
07:25 -13.8 °C -15.8 °C 34144.4 hPa SW 23.3 km/h 31.1 km/h 78 % 0 mm
vindpropell
Compliments of Weather Underground - 2.75 mb

Script utviklet av  Jim McMurry - jmcmurry@mwt.net Tilpasset for tamplaten av  Wim van der Kuil - Leuven-Template.eu